Regional Weather Roundup
Issued by NWS

Home | Current Version | Previous Version | Text Only | Print | Product List | Glossary On
Versions: 1 2 3 4 5 6 7 8 9 10 11 12 13 14 15 16 17 18 19 20 21 22 23 24 25 26 27 28 29 30 31 32 33 34 35 36 37 38 39 40 41 42 43 44 45 46 47 48 49 50
000
ASUS44 KLUB 252001
RWRTX
WEST TEXAS WEATHER ROUNDUP
NATIONAL WEATHER SERVICE LUBBOCK TX
300 PM CDT SAT OCT 25 2014

NOTE: "FAIR" INDICATES FEW OR NO CLOUDS BELOW 12,000 FEET WITH NO
SIGNIFICANT WEATHER AND/OR OBSTRUCTIONS TO VISIBILITY.

TXZ004-006>008-010-012-014-016-OKZ002-252100-
TEXAS PANHANDLE/OKLAHOMA PANHANDLE

CITY           SKY/WX    TMP DP  RH WIND       PRES   REMARKS
AMARILLO       SUNNY     84  47  27 S17G23    30.12F
BORGER         SUNNY     88  45  22 SW12G24   30.08F
CANADIAN       SUNNY     91  49  23 SW13G20   30.05F
DALHART        SUNNY     86  36  16 S18G26    30.11F
DUMAS            N/A     87  43  21 S14       30.10F
GUYMON         SUNNY     90  41  18 S16G24    30.03F
HEREFORD       SUNNY     86  48  26 S16       30.14F
PAMPA          SUNNY     86  45  23 SW17G23   30.10F
$$

TXZ026-029-035-045-048-252100-
SOUTHERN PANHANDLE/SOUTH PLAINS/ROLLING PLAINS

CITY           SKY/WX    TMP DP  RH WIND       PRES   REMARKS
CHILDRESS      SUNNY     91  50  24 S8        30.07F
SEMINOLE       SUNNY     84  49  29 S7        30.16F
LUBBOCK        SUNNY     84  51  31 S12G20    30.13F
PLAINVIEW      SUNNY     83  50  31 SW12G17   30.12F
SNYDER         SUNNY     82  56  40 S10       30.14F
$$

TXZ052-054-060>062-072-078-127-140-154-169-252100-
PERMIAN BASIN/CONCHO VALLEY/BIG COUNTRY/EDWARDS PLATEAU

CITY           SKY/WX    TMP DP  RH WIND       PRES   REMARKS
ABILENE        SUNNY     88  52  29 S14       30.11F
BIG SPRING     SUNNY     85  48  27 S7        30.15F
JUNCTION       SUNNY     86  54  33 S9        30.13F
MIDLAND        SUNNY     87  48  25 VRB5      30.13F
ODESSA         SUNNY     85  48  27 SW8       30.14F
SAN ANGELO     SUNNY     88  50  27 S8        30.11F
SONORA         SUNNY     84  50  30 S12G17    30.18F
SWEETWATER     SUNNY     86  46  25 S7        30.16F
WINK           SUNNY     86  49  27 S7        30.11F
$$

TXZ055-058-074-075-080-082-252100-
FAR WEST/SOUTHWEST MOUNTAINS/TRANS PECOS

CITY           SKY/WX    TMP DP  RH WIND       PRES   REMARKS
ALPINE         SUNNY     80  47  31 SW6       30.28F
DRYDEN           N/A     84  58  40 S6        30.11F
EL PASO        SUNNY     81  45  28 CALM      30.18F
FORT STOCKTON  SUNNY     86  50  28 SW7       30.13F
MARFA          SUNNY     79  50  36 S7        30.27F
PECOS          SUNNY     86  52  31 NE6       30.11F
PRESIDIO       FAIR      85  51  31 SW6       30.14F
$$

TXZ014-016-019-021>030-083-252100
TEXAS TECH WEST TEXAS MESONET/TEXAS PANHANDLE/NORTHERN SOUTH PLAINS

CITY           SKY/WX    TMP DP  RH WIND       PRES   REMARKS
ABERNATHY 5ENE   N/A     84  50  31 SW10      30.15F
AMARILLO 9NNE    N/A     87  46  23 SW15      30.10F
AMARILLO 7SSE    N/A     85  49  27 S14       30.13F
AMHERST 1NE      N/A     84  44  24 S12       30.15F
BOOTLEG 11WNW    N/A     84  42  22 SW17      30.18F
CANADIAN 6E      N/A     90  50  25 S15       30.05F
CAPROCK CYN SP   N/A     87  47  25 S16       30.11F
CHILDRESS 2NNE   N/A     92  48  22 SW12      30.06F
CLARENDON 2WSW   N/A     88  46  23 S16       30.10F
CLAUDE 12SW      N/A     85  48  28 SW12      30.12F
DIMMITT 2NE      N/A     83  46  27 S16       30.15F
FLOYDADA 2NNE    N/A     85  44  24 SW14      30.14F
FRIONA 2NE       N/A     84  46  25 S13       30.16F
GOODLETT 3W      N/A     92  48  21 S12       30.05F
HART 3N          N/A     84  47  27 S10       30.15F
HEREFORD 2NW     N/A     84  43  23 S13       30.14F
MCLEAN 1E        N/A     87  47  24 S12       30.09F
MEMPHIS 1NE      N/A     90  49  24 S10       30.07F
MULESHOE 2SSW    N/A     85  44  23 S10       30.15F
OLTON 6S         N/A     84  45  25 S13       30.14F
PALO DURO SP     N/A     86  50  28 SW8       30.14F
PAMPA 2E         N/A     85  48  27 SW9       30.11F
PLAINVIEW 1S     N/A     83  49  29 SW10      30.13F
SILVERTON 7ESE   N/A     86  47  26 S14       30.13F
TULIA 2ENE       N/A     84  47  27 S15       30.14F
TURKEY 2WSW      N/A     88  50  26 S13       30.09F
UMBARGER 3NNE    N/A     84  48  28 S13       30.14F
$$

TXZ033>036-039>041-045>048-252100
TEXAS TECH WEST TEXAS MESONET/SOUTH PLAINS

CITY           SKY/WX    TMP DP  RH WIND       PRES   REMARKS
AIKEN 3WSW       N/A     83  51  33 SW13      30.15F
ANTON 6SSW       N/A     84  49  30 S10       30.14F
BROWNFIELD 2S    N/A     83  50  32 SW10      30.15F
DENVR CTY 7WNW   N/A     82  45  26 S12       30.16F
GAIL 2ESE        N/A     83  56  39 S8        30.13F
LAMESA 2SE       N/A     84  52  32 S8        30.14F
LEVELLAND 4S     N/A     84  48  28 S13       30.15F
LUBBOCK 3WNW     N/A     85  50  29 S8        30.14F
MORTON 1ENE      N/A     85  45  24 S13       30.15F
ODONNELL 1N      N/A     84  46  26 S9        30.15F
PLAINS 3N        N/A     83  48  29 S14       30.16F
RALLS 1SE        N/A     84  49  28 S13       30.15F
REESE CENTER     N/A     83  47  28 S13       30.14F
SEMINOLE 2NNE    N/A     85  48  27 S14       30.15F
SLATON 2NE       N/A     83  46  26 S14       30.14F
SNYDER 3E        N/A     83  56  39 S8        30.13F
SUNDOWN 8SW      N/A     85  50  29 S10G20    30.15F
TAHOKA 3NNE      N/A     85  49  28 S13       30.14F
WOLFFORTH 6SSW   N/A     83  50  31 S9        30.15F
$$

TXZ031-032-036>038-042>044-252100-
TEXAS TECH WEST TEXAS MESONET/ROLLING PLAINS

CITY           SKY/WX    TMP DP  RH WIND       PRES   REMARKS
ASPERMONT 3NE    N/A     87  56  33 SW9       30.09F
FLUVANNA 3WNW    N/A     81  56  42 S8        30.14F
GRAHAM 5SSW      N/A     83  49  30 S13       30.13F
GUTHRIE 10WSW    N/A     88  54  31 S10       30.09F
HASKELL 1NW      N/A     89  50  26 S9        30.08F
JAYTON 1SSE      N/A     86  54  32 S8        30.10F
KNOX CITY 3NW    N/A     89  53  29 S8        30.08F
LK A HENRY 1NW   N/A     84  54  34 S9        30.11F
NORTHFIELD 1S    N/A     90  49  24 S14       30.07F
ODELL 4ENE       N/A     92  51  24 S13       30.05F
PADUCAH 10SW     N/A     90  48  24 S12       30.08F
POST 1NE         N/A     86  51  29 S8        30.12F
RRING SPRGS 3N   N/A     86  51  29 S13       30.11F
SEYMOUR 3NW      N/A     88  54  30 SW9       30.07F
SPUR 1W          N/A     86  47  26 S9        30.10F
WEINERT 2NNE     N/A     90  55  29 S9        30.08F
WHITE RVR 6NE    N/A     86  51  29 S12       30.12F
$$

TXZ052-054-060>062-072-078-127-140-154-169-252100-
TEXAS TECH WEST TEXAS MESONET/PERMIAN BASIN/
CONCHO VALLEY/BIG COUNTRY/EDWARDS PLATEAU

CITY           SKY/WX    TMP DP  RH WIND       PRES   REMARKS
COYANOSA 2N      N/A     87  53  30 E6        30.12F
JUNCTION 1SSW    N/A     86  56  35 S9        30.13F
MERTZON 3NNE     N/A     87  49  26 SW8       30.13F
SAN ANGELO 7NW   N/A     87  49  26 S10       30.12F
STRLNG CT 4WSW   N/A     87  45  23 S8        30.13F
ST LAWRNCE 5SW   N/A     85  44  23 S8        30.14F
SWEETWATR 11SW   N/A     85  53  32 SW10      30.15F
WALL 1E          N/A     87  49  27 S10       30.12F
$$

TXZ055-058-074-075-080-082-252100-
TEXAS TECH WEST TEXAS MESONET/FAR WEST/SOUTHWEST MOUNTAINS/TRANS PECOS

CITY           SKY/WX    TMP DP  RH WIND       PRES   REMARKS
PRSMN GAP BBNP   N/A     86  55  35 E5        30.14F
GUADLPE MTN NP   N/A     76  33  21 W6        30.28F
$$



USA.gov is the U.S. government's official web portal to all federal, state and local government web resources and services.